Temperature
27 28 28 27 26 25 24 23 22 22 22 22 19 18 17 17 16 16 16 16 15 14 14 13 13 12 12 12 12 11 11 11 10 10 10 10 9 9 9 9 9 9 10 10
26 27 27 25 24 23 23 22 22 21 21 21 19 18 17 17 16 16 16 15 14 13 13 13 12 12 12 11 11 11 11 11 10 10 10 10 10 9 9 9 9 9 9 10
25 27 26 23 21 21 21 21 21 20 20 20 18 17 17 16 16 16 14 14 13 13 12 12 11 11 11 11 11 10 10 10 10 10 10 10 10 10 10 9 9 9 9 9
25 26 24 21 22 21 20 21 21 19 18 18 17 17 16 16 16 14 13 13 12 12 12 11 11 11 11 10 10 10 9 9 9 9 9 9 10 10 10 9 9 9 9 9
25 24 24 22 21 21 19 20 19 18 18 17 16 16 16 15 14 13 13 12 12 12 11 11 11 10 10 10 9 9 9 9 8 8 9 9 9 9 9 9 9 9 9 9
24 23 22 20 21 20 20 20 18 17 17 16 15 15 15 14 13 13 12 12 12 11 11 11 11 10 10 9 9 8 8 8 8 8 8 8 8 8 8 9 9 9 9 9
23 22 22 20 21 20 18 18 17 16 16 15 15 14 14 13 13 12 12 12 12 11 11 11 10 10 9 9 8 8 7 7 7 7 7 7 7 8 8 8 8 8 8 9
22 21 21 21 20 18 17 17 16 15 15 14 14 13 13 13 13 12 12 12 11 11 11 10 10 10 9 8 7 7 6 6 6 6 6 6 7 7 7 7 7 8 8 8
21 21 21 19 19 18 17 16 15 15 14 14 13 13 13 13 12 12 12 11 11 11 10 10 9 8 7 7 6 5 5 5 5 5 5 6 6 6 6 7 7 7 8 8
21 21 20 18 18 17 16 15 15 14 14 13 13 13 13 12 12 12 11 11 10 9 8 8 7 6 5 5 4 4 4 4 4 4 5 5 6 6 6 6 7 7 7 8
21 20 18 18 16 16 15 15 14 14 13 13 13 12 12 12 11 11 10 9 8 7 6 5 4 4 4 4 3 3 4 4 4 4 5 5 5 6 6 6 6 7 7 7
19 18 17 16 16 15 15 14 14 13 13 12 12 12 11 11 10 9 8 7 5 5 4 3 3 3 3 3 3 3 3 4 4 4 5 5 5 5 6 6 6 6 7 7
18 17 16 16 15 15 14 13 13 13 12 12 12 11 10 10 9 7 6 5 4 3 3 3 3 3 3 3 3 3 4 4 4 4 5 5 5 5 5 6 6 6 6 7
17 16 15 15 15 14 13 13 12 12 12 11 11 10 9 8 7 5 4 4 4 3 3 3 4 4 4 4 4 4 4 4 4 4 5 5 5 5 5 6 6 6 6 7
16 15 15 15 14 13 13 12 12 12 11 11 10 9 8 7 5 5 4 4 4 4 4 4 4 4 4 4 4 4 4 4 4 5 5 5 5 5 6 6 6 6 6 7
16 15 15 14 13 13 12 12 11 11 10 10 9 8 7 5 5 4 4 4 4 4 4 5 5 5 5 5 5 5 5 5 5 5 5 5 5 5 6 6 6 7 7 6
15 15 14 13 13 12 12 11 11 10 10 9 8 7 6 5 4 4 4 4 5 5 5 5 5 5 5 5 5 5 5 5 5 5 5 5 6 6 6 6 7 7 7 7
15 14 14 13 12 11 11 10 10 9 9 8 7 6 5 5 4 4 4 5 5 5 5 5 6 6 6 6 5 5 6 6 6 6 6 6 6 6 6 7 7 7 7 7
15 14 13 12 12 11 10 10 9 9 8 7 6 5 5 5 4 4 5 5 5 5 6 6 6 6 6 6 6 6 6 6 6 6 6 6 6 6 6 7 7 7 7 6
14 14 13 12 11 11 10 9 9 8 8 7 6 5 5 5 5 5 5 5 5 6 6 6 7 7 7 7 7 6 6 6 6 6 6 6 6 6 6 6 6 6 6 6
14 13 12 12 11 10 10 9 9 8 7 7 6 6 5 5 5 5 5 5 6 6 7 7 7 7 7 7 7 7 7 7 7 7 7 6 6 6 6 6 6 6 6 6
13 12 11 11 10 10 9 9 9 8 7 7 6 6 6 5 5 6 6 6 6 7 7 7 7 7 8 8 8 8 8 7 7 7 7 7 7 6 6 6 6 6 7 7
12 12 11 10 10 9 9 9 8 8 7 7 6 6 6 5 5 5 6 6 7 7 8 8 8 8 8 8 8 8 8 8 8 8 8 8 7 7 7 8 8 8 8 8
12 11 11 10 9 9 9 9 8 8 7 7 7 6 6 6 6 6 6 7 7 8 9 9 9 9 9 9 9 9 9 9 9 9 9 8 9 9 9 9 9 9 9 10
11 11 10 10 10 10 9 9 8 8 7 7 6 6 6 5 5 6 6 7 8 9 9 9 9 9 9 10 10 10 10 10 10 10 10 10 10 10 10 10 10 10 10 11
11 11 11 10 10 9 9 8 8 8 7 6 6 6 5 5 5 6 6 7 8 8 9 9 10 10 10 10 10 10 10 10 11 11 11 11 11 11 11 11 11 11 11 11
12 12 12 11 10 9 8 8 8 7 7 6 5 5 5 5 5 5 6 7 8 8 8 9 9 9 10 10 10 10 11 11 11 11 11 12 12 12 12 12 12 12 12 12
Wind_Speed
16 17 14 8 8 10 9 9 11 16 18 13 4 9 13 16 17 20 22 20 15 12 11 11 11 10 10 11 11 11 12 12 12 12 12 12 11 11 11 12 13 10 10 10
17 15 5 5 9 9 9 10 13 17 18 10 9 12 15 18 21 24 21 17 18 17 16 14 13 13 12 11 11 10 11 12 12 12 12 12 12 12 12 12 12 11 11 10
13 13 8 3 8 9 10 12 15 20 20 17 16 17 20 22 25 21 19 22 22 20 16 13 14 13 12 11 11 11 11 12 12 13 13 13 15 13 12 12 12 11 11 10
10 12 7 6 5 8 11 14 18 15 17 19 20 20 19 21 20 21 24 24 22 20 19 17 17 16 13 14 13 13 13 13 13 13 14 13 13 13 12 11 11 10 10 10
8 12 5 6 7 11 15 19 11 15 20 23 24 25 22 19 22 23 24 22 20 21 22 18 18 16 15 15 15 16 16 14 14 14 14 13 12 12 10 10 9 10 10 10
9 12 9 6 11 16 17 13 15 22 24 25 26 24 21 23 25 24 23 21 20 21 21 17 15 14 15 18 17 17 17 15 15 14 15 15 13 12 11 9 9 10 10 9
10 13 4 9 16 18 13 14 22 23 24 25 23 22 24 27 25 24 22 21 20 19 18 15 14 14 14 15 16 16 16 17 17 16 16 16 14 12 10 11 11 10 9 9
9 9 6 14 14 13 14 17 21 23 24 24 25 26 26 26 24 23 24 23 23 18 17 14 13 13 14 14 15 15 16 18 18 16 17 17 13 11 10 10 10 10 9 10
6 8 10 13 13 15 17 20 21 23 25 25 26 28 28 26 24 24 23 22 21 21 18 14 12 13 16 14 15 17 18 18 18 18 16 14 14 13 11 9 9 10 10 10
7 10 14 14 16 18 19 20 22 24 25 26 27 29 29 26 24 24 23 22 22 22 21 19 17 17 16 17 17 17 18 17 16 16 15 14 12 12 11 10 9 9 9 10
11 12 14 14 18 19 20 22 23 24 25 25 27 28 27 25 24 24 23 21 22 22 22 23 21 20 20 19 17 17 17 16 15 15 14 12 12 11 11 10 9 7 7 7
8 12 14 17 19 20 21 22 24 25 25 26 25 26 27 25 24 24 25 25 24 24 25 25 24 23 21 18 16 16 15 14 12 11 10 10 10 10 12 13 11 11 9 5
8 13 14 17 18 19 21 23 24 24 25 26 25 25 26 25 24 25 25 25 25 25 25 24 23 22 20 17 15 15 14 13 10 9 9 8 8 8 7 8 10 11 10 8
9 12 15 15 18 19 21 23 23 24 23 24 24 24 25 25 25 25 25 25 24 24 24 23 21 20 18 15 14 14 12 11 9 8 8 7 7 7 7 6 7 7 7 10
11 12 14 16 17 19 20 22 23 23 24 24 24 24 25 25 25 24 24 23 23 23 23 21 19 18 16 13 12 11 8 6 5 5 5 5 6 6 5 6 6 6 7 8
11 12 14 16 18 19 21 22 22 23 24 24 24 25 25 24 23 23 23 23 23 23 22 19 18 16 14 12 11 8 6 5 5 4 3 3 4 5 5 5 5 6 7 9
11 13 15 16 18 19 20 21 21 22 23 23 24 24 24 23 23 24 24 24 22 20 18 17 17 15 13 11 9 6 5 3 3 3 1 1 3 4 5 5 5 5 5 8
9 11 12 14 16 18 19 20 20 21 21 22 23 23 23 22 22 23 24 23 21 19 18 18 17 15 12 9 8 7 5 4 3 2 1 2 3 4 4 4 5 6 7 7
9 11 12 13 14 15 17 18 19 19 20 20 21 22 21 20 20 21 22 21 19 19 20 20 19 13 9 9 10 6 6 5 4 3 3 3 3 3 3 4 4 5 6 7
9 10 12 13 14 15 16 17 18 17 18 19 20 21 21 21 19 20 21 18 15 17 20 20 16 11 9 10 12 7 5 5 3 2 2 2 2 3 3 4 4 5 5 6
9 11 12 13 14 14 15 16 16 17 18 18 19 19 20 19 18 18 17 15 18 21 21 19 13 11 11 12 12 6 4 3 1 0 1 2 3 4 4 5 5 5 6 7
8 9 11 12 13 14 14 14 15 16 17 17 18 18 19 18 18 18 16 13 17 22 18 13 13 15 17 16 9 6 3 2 1 1 1 1 2 3 4 6 6 7 8 8
6 8 9 11 12 13 13 13 15 15 16 16 17 17 18 15 12 13 16 15 16 22 17 12 17 21 20 12 8 6 4 3 2 1 0 1 2 3 5 7 7 8 9 10
6 7 8 9 11 11 12 13 14 12 14 14 15 16 15 14 13 12 11 16 19 20 15 15 19 21 16 9 9 8 6 5 4 3 3 3 3 5 6 6 7 7 8 10
6 7 8 8 9 9 10 12 13 13 14 13 16 16 14 12 13 14 14 17 20 19 16 16 19 19 12 10 11 10 9 8 6 4 4 4 4 5 6 6 7 7 7 7
6 7 6 6 6 6 8 9 10 11 12 13 14 14 14 13 14 14 13 16 20 19 16 14 15 14 12 12 12 12 11 9 7 5 4 3 5 6 7 7 9 7 6 7
8 8 6 5 4 6 7 8 9 10 11 12 14 13 14 14 14 15 16 15 15 15 15 15 14 14 13 12 12 12 12 12 10 8 7 5 4 4 6 7 6 6 7 7
Wind_Direction
317 315 321 354 20 15 3 349 326 328 325 335 4 337 326 321 322 322 318 318 326 328 323 316 310 298 290 283 275 268 263 261 260 259 258 258 261 264 266 269 274 275 281 286
310 315 324 64 37 17 1 351 332 320 316 344 340 328 323 325 325 318 317 330 333 327 322 319 315 310 305 298 292 283 274 271 267 262 261 259 259 259 260 263 265 267 270 275
308 308 290 72 36 14 353 340 331 318 321 336 335 327 323 325 317 319 334 330 324 320 316 311 306 301 297 300 302 299 292 286 280 272 267 263 264 261 255 255 257 257 262 265
305 323 338 81 51 4 337 325 333 346 357 345 331 327 325 317 324 335 327 321 317 314 311 305 302 302 300 303 302 299 295 293 291 285 278 271 264 259 255 255 257 259 262 265
339 337 354 116 38 360 331 314 18 354 339 334 331 321 314 326 331 321 315 314 311 307 304 302 300 299 298 298 299 296 294 293 293 291 289 285 277 268 262 259 257 259 263 259
344 331 341 50 10 348 323 299 9 346 335 331 326 319 320 325 319 315 314 309 305 304 302 298 295 295 294 295 295 294 295 296 293 287 283 281 278 277 274 266 261 258 259 259
342 324 45 18 355 347 332 327 334 330 328 325 322 314 313 316 316 313 310 307 305 303 300 297 292 288 285 288 290 293 297 298 295 290 285 279 272 267 267 268 265 261 266 272
337 328 0 4 354 349 324 324 327 326 323 319 316 313 314 314 313 311 311 310 308 305 300 295 290 289 290 291 295 298 299 295 291 287 285 282 275 268 262 263 263 260 258 261
332 315 341 3 348 342 337 330 326 323 321 319 317 316 316 315 313 313 313 312 311 309 306 304 306 309 305 304 305 302 297 291 287 284 279 273 269 266 262 255 254 254 254 256
315 315 350 348 344 338 333 327 324 323 321 320 318 317 316 317 317 317 318 319 320 320 320 320 322 318 311 307 303 296 290 286 282 279 275 268 260 255 253 247 242 241 249 257
311 341 339 334 335 332 328 328 325 324 323 321 319 319 320 321 322 323 324 327 329 328 324 321 318 311 306 302 296 290 286 282 278 272 268 264 256 248 244 239 229 227 243 254
322 333 322 322 330 330 330 328 329 327 325 324 325 325 326 326 327 330 331 332 329 325 319 314 310 305 301 297 292 288 285 280 275 269 263 256 252 251 232 225 219 215 222 230
322 326 323 323 326 331 330 330 330 329 327 328 330 330 330 332 334 334 331 329 324 318 313 310 307 303 301 298 293 287 282 279 273 267 262 253 244 239 233 218 214 207 205 190
335 333 325 325 330 333 332 330 330 329 331 332 333 335 337 336 334 332 328 323 319 315 312 311 309 308 306 303 298 293 287 280 275 267 257 247 237 229 222 206 193 194 181 157
337 330 324 329 333 334 333 333 333 333 334 337 340 341 340 338 333 328 325 322 321 319 319 319 318 316 317 313 309 305 298 289 285 278 259 238 225 218 212 200 194 188 160 140
328 328 331 334 335 335 335 336 336 335 338 340 342 343 340 336 331 327 327 328 328 326 324 324 326 327 328 326 325 321 315 301 295 291 265 228 204 199 193 188 183 180 172 155
328 331 336 336 335 335 335 336 336 338 340 342 343 341 339 335 333 332 332 333 330 327 329 333 335 336 337 339 336 332 334 335 276 276 257 194 182 177 170 171 169 166 167 150
326 331 337 337 335 332 334 336 338 340 342 344 342 340 338 337 335 334 333 333 334 337 342 342 340 337 342 354 345 340 344 351 0 14 79 115 137 150 160 164 160 146 140 139
324 332 339 340 336 335 334 335 338 340 344 345 342 339 337 337 336 335 334 336 340 344 343 340 333 339 354 4 345 338 355 11 43 62 84 105 122 136 147 150 144 141 146 154
323 335 339 337 338 338 336 337 337 340 344 345 342 339 339 339 340 339 337 337 342 343 335 331 332 343 353 355 337 339 351 358 27 62 99 125 139 152 160 162 160 162 166 170
327 334 336 336 337 337 338 337 337 340 344 346 343 340 339 339 341 342 339 340 340 340 336 329 341 351 346 335 318 324 342 352 4 287 224 193 183 182 186 186 184 185 185 185
324 328 330 332 332 334 335 336 339 341 343 344 343 343 343 343 343 342 341 340 334 333 337 338 345 339 333 323 315 324 337 339 314 273 257 211 184 184 190 186 180 178 178 178
316 323 326 327 329 327 330 337 340 341 342 344 345 347 345 343 343 341 339 335 335 332 334 334 333 331 329 328 332 344 356 357 357 5 335 195 174 164 161 163 163 164 166 165
301 313 318 322 323 322 333 337 338 339 342 345 349 352 348 345 345 345 335 328 335 333 337 332 330 332 332 343 353 2 11 17 32 47 65 83 104 125 136 142 142 143 147 152
290 303 304 316 318 328 332 335 337 341 346 350 350 353 355 352 347 342 339 339 342 341 342 339 338 336 347 360 9 12 19 23 22 36 79 95 100 111 124 128 130 138 146 150
265 277 292 298 303 319 335 340 337 342 346 351 348 351 353 354 352 349 345 346 348 346 349 350 350 351 0 7 13 16 17 20 23 31 49 84 121 128 131 137 140 144 146 145
242 255 252 280 335 357 345 337 338 343 351 354 346 351 354 356 354 352 352 353 353 354 355 356 356 359 4 11 17 20 18 16 17 18 27 41 66 99 118 127 128 132 138 140
Height
1484 1476 1474 1478 1482 1485 1490 1496 1500 1497 1496 1492 1497 1501 1501 1499 1497 1494 1491 1487 1483 1480 1478 1476 1473 1470 1467 1464 1461 1458 1455 1452 1450 1448 1445 1443 1441 1439 1437 1436 1434 1433 1433 1433
1488 1478 1477 1484 1491 1493 1495 1497 1499 1499 1497 1494 1497 1498 1497 1496 1493 1490 1485 1482 1480 1478 1475 1471 1468 1465 1461 1458 1456 1453 1449 1446 1443 1441 1439 1437 1435 1433 1431 1430 1429 1428 1427 1426
1495 1479 1479 1496 1503 1503 1504 1503 1502 1501 1497 1494 1495 1497 1495 1492 1489 1484 1482 1480 1476 1473 1469 1466 1462 1458 1454 1451 1448 1445 1442 1439 1437 1434 1431 1430 1428 1427 1425 1424 1423 1423 1422 1421
1491 1487 1502 1511 1503 1504 1505 1502 1500 1499 1501 1500 1499 1496 1493 1490 1484 1481 1479 1475 1471 1467 1463 1459 1455 1451 1447 1444 1440 1437 1434 1431 1429 1427 1424 1422 1420 1419 1418 1418 1417 1416 1416 1416
1496 1499 1498 1504 1505 1506 1507 1503 1504 1504 1502 1499 1496 1492 1488 1486 1483 1479 1475 1470 1465 1460 1455 1451 1447 1443 1439 1435 1432 1429 1426 1423 1420 1418 1416 1414 1412 1411 1411 1411 1410 1410 1410 1411
1502 1508 1508 1513 1507 1507 1505 1498 1502 1502 1500 1497 1493 1486 1482 1481 1478 1473 1468 1463 1458 1452 1447 1442 1438 1434 1430 1426 1423 1420 1417 1414 1411 1409 1406 1404 1403 1402 1402 1402 1403 1403 1404 1404
1507 1509 1504 1511 1508 1508 1512 1510 1505 1503 1499 1496 1492 1488 1481 1475 1471 1466 1460 1455 1449 1444 1439 1434 1429 1425 1419 1416 1413 1409 1406 1403 1401 1398 1396 1394 1393 1393 1393 1394 1395 1396 1396 1397
1512 1514 1515 1510 1510 1514 1515 1509 1505 1502 1498 1493 1488 1482 1476 1470 1464 1458 1452 1446 1441 1435 1429 1424 1420 1415 1409 1405 1402 1398 1395 1391 1389 1386 1385 1384 1383 1383 1384 1385 1386 1387 1389 1390
1517 1519 1514 1513 1514 1514 1512 1508 1504 1500 1494 1489 1483 1476 1470 1464 1457 1451 1445 1438 1433 1426 1419 1414 1410 1405 1398 1394 1390 1386 1382 1378 1376 1374 1373 1373 1373 1373 1374 1376 1377 1379 1382 1383
1516 1512 1513 1514 1514 1513 1510 1507 1502 1497 1491 1485 1479 1471 1464 1457 1451 1444 1437 1431 1424 1417 1410 1404 1399 1394 1388 1382 1377 1372 1368 1365 1363 1362 1361 1362 1362 1364 1365 1367 1369 1372 1374 1377
1514 1513 1514 1513 1514 1511 1507 1503 1498 1493 1489 1482 1475 1467 1460 1452 1445 1439 1432 1425 1418 1410 1402 1394 1387 1380 1375 1369 1364 1359 1356 1353 1352 1351 1350 1351 1352 1354 1356 1358 1362 1365 1368 1371
1519 1518 1517 1514 1511 1508 1504 1499 1494 1489 1483 1478 1471 1463 1456 1449 1442 1434 1426 1419 1410 1402 1393 1384 1376 1368 1362 1357 1352 1348 1345 1343 1342 1341 1341 1342 1344 1346 1348 1351 1355 1359 1362 1366
1518 1517 1515 1512 1509 1506 1501 1497 1492 1486 1480 1473 1467 1461 1453 1445 1438 1430 1421 1412 1403 1393 1384 1374 1366 1358 1352 1347 1343 1340 1337 1335 1334 1334 1335 1336 1338 1340 1343 1346 1349 1353 1358 1362
1516 1515 1513 1510 1507 1503 1499 1494 1489 1483 1477 1471 1464 1457 1450 1442 1434 1425 1415 1405 1396 1386 1376 1367 1359 1352 1346 1341 1337 1334 1331 1330 1329 1329 1330 1331 1333 1336 1339 1342 1345 1349 1354 1358
1514 1513 1511 1508 1504 1501 1496 1491 1485 1479 1473 1467 1461 1454 1447 1438 1429 1419 1410 1399 1390 1380 1371 1362 1355 1348 1342 1338 1334 1331 1328 1327 1326 1326 1327 1328 1330 1333 1336 1340 1343 1347 1352 1355
1512 1511 1508 1506 1502 1498 1493 1488 1482 1476 1470 1464 1458 1451 1444 1436 1426 1416 1405 1395 1386 1376 1368 1360 1353 1347 1341 1337 1333 1330 1328 1327 1326 1326 1326 1327 1329 1332 1335 1338 1342 1346 1350 1354
1510 1508 1505 1503 1500 1496 1491 1486 1481 1475 1469 1463 1456 1449 1441 1432 1422 1412 1402 1393 1385 1376 1368 1361 1354 1348 1343 1339 1335 1332 1330 1328 1327 1327 1327 1328 1330 1333 1335 1338 1342 1346 1350 1354
1508 1506 1504 1502 1498 1494 1489 1484 1479 1474 1468 1462 1454 1446 1438 1430 1420 1411 1401 1392 1384 1376 1369 1362 1356 1351 1346 1342 1338 1335 1333 1331 1330 1330 1330 1331 1332 1335 1337 1340 1343 1347 1351 1354
1505 1503 1501 1499 1496 1492 1487 1482 1478 1473 1467 1460 1453 1445 1438 1430 1421 1411 1401 1392 1385 1377 1370 1364 1359 1354 1350 1345 1341 1339 1336 1335 1333 1333 1333 1334 1335 1337 1339 1342 1345 1348 1352 1355
1502 1501 1498 1496 1493 1490 1485 1481 1476 1471 1466 1459 1452 1444 1436 1428 1420 1411 1402 1394 1388 1381 1373 1367 1362 1357 1353 1348 1344 1341 1339 1336 1335 1335 1335 1335 1337 1338 1340 1343 1346 1348 1351 1355
1499 1498 1496 1493 1490 1487 1483 1479 1474 1469 1464 1458 1451 1444 1437 1429 1420 1412 1403 1395 1389 1382 1375 1369 1364 1359 1355 1350 1346 1343 1340 1337 1336 1335 1334 1335 1336 1337 1339 1341 1344 1347 1350 1354
1496 1495 1493 1490 1487 1484 1481 1477 1473 1468 1463 1457 1451 1444 1437 1429 1420 1412 1406 1400 1392 1385 1378 1372 1366 1362 1357 1352 1348 1345 1342 1339 1336 1335 1334 1334 1335 1336 1337 1340 1343 1346 1350 1354
1493 1492 1490 1488 1485 1482 1479 1475 1471 1467 1462 1456 1450 1444 1437 1431 1423 1415 1407 1401 1394 1388 1382 1376 1371 1365 1360 1355 1351 1348 1345 1342 1340 1338 1337 1337 1337 1338 1340 1342 1345 1349 1353 1357
1490 1489 1487 1485 1482 1480 1477 1473 1470 1465 1461 1456 1451 1445 1438 1431 1424 1418 1411 1404 1398 1392 1386 1381 1376 1370 1364 1360 1356 1353 1350 1347 1345 1343 1342 1342 1342 1344 1346 1348 1351 1354 1357 1361
1487 1485 1484 1482 1480 1477 1475 1471 1468 1464 1460 1455 1450 1444 1439 1433 1426 1419 1412 1406 1401 1395 1390 1385 1380 1376 1371 1366 1362 1359 1356 1354 1352 1351 1350 1349 1350 1351 1353 1355 1357 1360 1363 1367
1483 1482 1481 1479 1477 1475 1473 1470 1467 1463 1459 1454 1449 1444 1438 1433 1426 1420 1414 1408 1403 1398 1393 1389 1385 1381 1377 1373 1369 1366 1363 1361 1359 1358 1358 1357 1358 1359 1360 1361 1363 1365 1368 1371
1479 1478 1477 1476 1475 1473 1471 1469 1466 1463 1459 1454 1449 1444 1439 1433 1427 1421 1416 1410 1405 1401 1396 1393 1389 1386 1383 1380 1376 1373 1370 1368 1366 1365 1364 1364 1365 1365 1366 1368 1369 1371 1373 1375